EN

Hourly Weather Alta Gracia

Today, 19 January, Tuesday

Time Temperature Precipitation Wind Pressure Humidity
00:00 +19°C° 0 mm 1 mps 713 mmHg 37%
01:00 +19°C° 0 mm 1 mps 713 mmHg 37%
02:00 +18°C° 0 mm 1 mps 712 mmHg 37%
03:00 +18°C° 0 mm 1 mps 712 mmHg 37%
04:00 +18°C° 0 mm 1 mps 712 mmHg 37%
05:00 +18°C° 0 mm 1 mps 712 mmHg 37%
06:00 +20°C° 0 mm 1 mps 713 mmHg 34%
07:00 +23°C° 0 mm 1 mps 714 mmHg 30%
08:00 +25°C° 0 mm 2 mps 714 mmHg 27%
09:00 +27°C° 0 mm 2 mps 714 mmHg 25%
10:00 +28°C° 0 mm 3 mps 715 mmHg 23%
11:00 +30°C° 0 mm 3 mps 715 mmHg 20%
12:00 +31°C° 0 mm 3 mps 714 mmHg 19%
13:00 +33°C° 0 mm 3 mps 714 mmHg 18%
14:00 +34°C° 0 mm 3 mps 713 mmHg 16%
15:00 +34°C° 0 mm 3 mps 713 mmHg 16%
16:00 +34°C° 0 mm 3 mps 712 mmHg 16%
17:00 +34°C° 0 mm 4 mps 712 mmHg 16%
18:00 +30°C° 0 mm 3 mps 712 mmHg 19%
19:00 +27°C° 0 mm 3 mps 712 mmHg 21%
20:00 +24°C° 0 mm 2 mps 712 mmHg 24%
21:00 +23°C° 0 mm 2 mps 712 mmHg 26%
22:00 +21°C° 0 mm 2 mps 713 mmHg 28%
23:00 +20°C° 0 mm 2 mps 714 mmHg 30%

Tomorrow, 20 January, Wednesday

Time Temperature Precipitation Wind Pressure Humidity
00:00 +20°C° 0 mm 2 mps 713 mmHg 32%
01:00 +21°C° 0 mm 1 mps 713 mmHg 33%
02:00 +20°C° 0 mm 1 mps 713 mmHg 35%
03:00 +20°C° 0 mm 1 mps 713 mmHg 36%
04:00 +20°C° 0 mm 1 mps 713 mmHg 37%
05:00 +19°C° 0 mm 1 mps 713 mmHg 38%
06:00 +21°C° 0 mm 2 mps 713 mmHg 36%
07:00 +24°C° 0 mm 2 mps 714 mmHg 35%
08:00 +27°C° 0 mm 2 mps 714 mmHg 33%
09:00 +28°C° 0 mm 2 mps 714 mmHg 31%
10:00 +30°C° 0 mm 3 mps 714 mmHg 28%
11:00 +33°C° 0 mm 3 mps 714 mmHg 26%
12:00 +34°C° 0 mm 4 mps 714 mmHg 24%
13:00 +35°C° 0 mm 4 mps 714 mmHg 22%
14:00 +36°C° 0 mm 4 mps 713 mmHg 20%
15:00 +35°C° 0 mm 4 mps 713 mmHg 20%
16:00 +35°C° 0 mm 4 mps 712 mmHg 20%
17:00 +35°C° 0 mm 3 mps 712 mmHg 20%
18:00 +31°C° 0 mm 3 mps 712 mmHg 24%
19:00 +29°C° 0 mm 2 mps 712 mmHg 28%
20:00 +26°C° 0 mm 2 mps 712 mmHg 32%
21:00 +25°C° 0 mm 2 mps 712 mmHg 33%
22:00 +24°C° 0 mm 2 mps 713 mmHg 34%
23:00 +24°C° 0 mm 1 mps 713 mmHg 36%

Day after tomorrow, 21 January, Thursday

Time Temperature Precipitation Wind Pressure Humidity
00:00 +23°C° 0 mm 1 mps 713 mmHg 38%
01:00 +22°C° 0 mm 1 mps 713 mmHg 41%
02:00 +21°C° 0 mm 2 mps 713 mmHg 43%
03:00 +21°C° 0 mm 1 mps 713 mmHg 46%
04:00 +21°C° 0 mm 1 mps 713 mmHg 49%
05:00 +20°C° 0 mm 1 mps 713 mmHg 51%
06:00 +22°C° 0 mm 1 mps 713 mmHg 47%
07:00 +25°C° 0 mm 1 mps 714 mmHg 42%
08:00 +27°C° 0 mm 1 mps 714 mmHg 37%
09:00 +29°C° 0 mm 2 mps 714 mmHg 33%
10:00 +30°C° 0 mm 3 mps 714 mmHg 28%
11:00 +33°C° 0 mm 3 mps 714 mmHg 24%
12:00 +34°C° 0 mm 4 mps 714 mmHg 22%
13:00 +35°C° 0 mm 4 mps 714 mmHg 20%
14:00 +36°C° 0 mm 4 mps 713 mmHg 18%
15:00 +36°C° 0 mm 4 mps 713 mmHg 19%
16:00 +36°C° 0 mm 4 mps 712 mmHg 20%
17:00 +36°C° 0 mm 4 mps 712 mmHg 21%
18:00 +33°C° 0 mm 3 mps 712 mmHg 26%
19:00 +30°C° 0 mm 3 mps 712 mmHg 31%
20:00 +27°C° 0 mm 2 mps 712 mmHg 37%
21:00 +26°C° 0 mm 2 mps 712 mmHg 39%
22:00 +25°C° 0 mm 2 mps 713 mmHg 42%
23:00 +25°C° 0 mm 2 mps 713 mmHg 45%

22 January, Friday

Time Temperature Precipitation Wind Pressure Humidity
00:00 +24°C° 0 mm 2 mps 713 mmHg 46%
01:00 +23°C° 0 mm 1 mps 713 mmHg 48%
02:00 +22°C° 0 mm 1 mps 713 mmHg 50%
03:00 +22°C° 0 mm 1 mps 712 mmHg 52%
04:00 +21°C° 0 mm 1 mps 712 mmHg 53%
05:00 +19°C° 0 mm 0 mps 712 mmHg 55%
06:00 +23°C° 0 mm 1 mps 713 mmHg 49%
07:00 +25°C° 0 mm 1 mps 713 mmHg 44%
08:00 +27°C° 0 mm 1 mps 714 mmHg 38%
09:00 +29°C° 0 mm 2 mps 714 mmHg 34%
10:00 +31°C° 0 mm 3 mps 714 mmHg 30%
11:00 +34°C° 0 mm 3 mps 714 mmHg 26%
12:00 +35°C° 0 mm 4 mps 713 mmHg 25%
13:00 +36°C° 0 mm 4 mps 713 mmHg 23%
14:00 +39°C° 0 mm 5 mps 712 mmHg 21%
15:00 +37°C° 0 mm 5 mps 712 mmHg 22%
16:00 +37°C° 0 mm 5 mps 711 mmHg 24%
17:00 +36°C° 0 mm 6 mps 711 mmHg 25%
18:00 +34°C° 0 mm 5 mps 711 mmHg 32%
19:00 +32°C° 0 mm 4 mps 711 mmHg 39%
20:00 +29°C° 0 mm 3 mps 711 mmHg 46%
21:00 +28°C° 0 mm 3 mps 711 mmHg 50%
22:00 +27°C° 0 mm 2 mps 711 mmHg 54%
23:00 +26°C° 0 mm 2 mps 712 mmHg 58%

23 January, Saturday

Time Temperature Precipitation Wind Pressure Humidity
00:00 +25°C° 0 mm 2 mps 711 mmHg 60%
01:00 +25°C° 0 mm 2 mps 711 mmHg 61%
02:00 +25°C° 0 mm 2 mps 710 mmHg 62%
03:00 +24°C° 0 mm 2 mps 710 mmHg 65%
04:00 +24°C° 0 mm 2 mps 710 mmHg 68%
05:00 +24°C° 0 mm 2 mps 710 mmHg 71%
06:00 +26°C° 0 mm 2 mps 710 mmHg 66%
07:00 +28°C° 0 mm 3 mps 710 mmHg 60%
08:00 +29°C° 0 mm 3 mps 710 mmHg 54%
09:00 +32°C° 0 mm 4 mps 710 mmHg 49%
10:00 +34°C° 0 mm 4 mps 710 mmHg 44%
11:00 +36°C° 0 mm 4 mps 710 mmHg 39%
12:00 +35°C° 0.3 mm 4 mps 709 mmHg 42%
13:00 +34°C° 0.3 mm 3 mps 709 mmHg 44%
14:00 +34°C° 0.3 mm 3 mps 708 mmHg 47%
15:00 +34°C° 0.2 mm 3 mps 708 mmHg 47%
16:00 +34°C° 0.2 mm 3 mps 707 mmHg 47%
17:00 +34°C° 0.2 mm 3 mps 707 mmHg 47%
18:00 +30°C° 0.6 mm 3 mps 707 mmHg 59%
19:00 +27°C° 0.6 mm 3 mps 707 mmHg 72%
20:00 +25°C° 0.6 mm 4 mps 707 mmHg 84%
21:00 +25°C° 0.9 mm 3 mps 707 mmHg 84%
22:00 +25°C° 0.9 mm 3 mps 708 mmHg 85%
23:00 +24°C° 0.9 mm 2 mps 708 mmHg 85%

24 January, Sunday

Time Temperature Precipitation Wind Pressure Humidity
00:00 +24°C° 0.5 mm 2 mps 708 mmHg 84%
01:00 +24°C° 0.5 mm 2 mps 708 mmHg 83%
02:00 +24°C° 0.5 mm 1 mps 707 mmHg 82%
03:00 +24°C° 0.1 mm 1 mps 707 mmHg 81%
04:00 +24°C° 0.1 mm 1 mps 707 mmHg 80%
05:00 +24°C° 0.1 mm 1 mps 707 mmHg 79%
06:00 +26°C° 0.2 mm 1 mps 707 mmHg 73%
07:00 +28°C° 0.2 mm 1 mps 708 mmHg 67%
08:00 +29°C° 0.2 mm 1 mps 709 mmHg 61%
09:00 +31°C° 0.1 mm 2 mps 708 mmHg 56%
10:00 +33°C° 0.1 mm 3 mps 708 mmHg 51%
11:00 +34°C° 0.1 mm 3 mps 708 mmHg 46%
12:00 +36°C° 0.3 mm 3 mps 708 mmHg 42%
13:00 +37°C° 0.3 mm 3 mps 707 mmHg 38%
14:00 +38°C° 0.3 mm 3 mps 707 mmHg 33%
15:00 +35°C° 1.5 mm 3 mps 706 mmHg 47%
16:00 +32°C° 1.5 mm 4 mps 706 mmHg 60%
17:00 +28°C° 1.5 mm 4 mps 705 mmHg 73%
18:00 +27°C° 0.6 mm 4 mps 705 mmHg 76%
19:00 +25°C° 0.6 mm 3 mps 705 mmHg 79%
20:00 +24°C° 0.6 mm 3 mps 706 mmHg 82%
21:00 +24°C° 0 mm 2 mps 706 mmHg 79%
22:00 +25°C° 0 mm 2 mps 706 mmHg 76%
23:00 +25°C° 0 mm 1 mps 706 mmHg 72%
Show more